Time,TemperatureF,DewpointF,PressureIn,WindDirection,WindDirectionDegrees,WindSpeedMPH,WindSpeedGustMPH,Humidity,HourlyPrecipIn,Conditions,Clouds,dailyrainin,SolarRadiationWatts/m^2,SoftwareType,DateUTC
2013-04-12 00:12:00,27.0,24.0,-100.00,WSW,244,7.0,12.0,89,0.00,,,0.00,0.000000,,2013-04-12 06:12:00,
2013-04-12 00:22:00,27.0,24.0,-100.00,WSW,244,7.0,12.0,89,0.00,,,0.00,0.000000,,2013-04-12 06:22:00,
2013-04-12 00:32:00,27.0,24.0,-100.00,WSW,244,7.0,12.0,89,0.00,,,0.00,0.000000,,2013-04-12 06:32:00,
2013-04-12 00:42:00,27.0,24.0,-100.00,WSW,244,7.0,12.0,89,0.00,,,0.00,0.000000,,2013-04-12 06:42:00,
2013-04-12 00:52:00,27.0,23.0,-100.00,WSW,252,5.0,11.0,86,0.00,,,0.00,0.000000,,2013-04-12 06:52:00,
2013-04-12 01:22:00,27.0,23.0,-100.00,WSW,252,5.0,11.0,86,0.00,,,0.00,0.000000,,2013-04-12 07:22:00,
2013-04-12 01:32:00,27.0,23.0,-100.00,WSW,252,5.0,11.0,86,0.00,,,0.00,0.000000,,2013-04-12 07:32:00,
2013-04-12 01:42:00,27.0,23.0,-100.00,WSW,252,5.0,11.0,86,0.00,,,0.00,0.000000,,2013-04-12 07:42:00,
2013-04-12 01:52:00,27.0,24.0,-100.00,WSW,256,6.0,10.0,87,0.00,,,0.00,0.000000,,2013-04-12 07:52:00,
2013-04-12 02:12:00,27.0,24.0,-100.00,WSW,256,6.0,10.0,87,0.00,,,0.00,0.000000,,2013-04-12 08:12:00,
2013-04-12 02:22:00,27.0,24.0,-100.00,WSW,256,6.0,10.0,87,0.00,,,0.00,0.000000,,2013-04-12 08:22:00,
2013-04-12 02:32:00,27.0,24.0,-100.00,WSW,256,6.0,10.0,87,0.00,,,0.00,0.000000,,2013-04-12 08:32:00,
2013-04-12 02:42:00,27.0,24.0,-100.00,WSW,256,6.0,10.0,87,0.00,,,0.00,0.000000,,2013-04-12 08:42:00,
2013-04-12 02:52:00,26.0,21.0,-100.00,West,270,7.0,14.0,81,0.00,,,0.00,0.000000,,2013-04-12 08:52:00,
2013-04-12 03:22:00,26.0,21.0,-100.00,West,270,7.0,14.0,81,0.00,,,0.00,0.000000,,2013-04-12 09:22:00,
2013-04-12 03:33:00,26.0,21.0,-100.00,West,270,7.0,14.0,81,0.00,,,0.00,0.000000,,2013-04-12 09:33:00,
2013-04-12 03:43:00,26.0,21.0,-100.00,West,270,7.0,14.0,81,0.00,,,0.00,0.000000,,2013-04-12 09:43:00,
2013-04-12 03:52:00,25.0,21.0,-100.00,WSW,256,5.0,13.0,84,0.00,,,0.00,0.000000,,2013-04-12 09:52:00,
2013-04-12 04:12:00,25.0,21.0,-100.00,WSW,256,5.0,13.0,84,0.00,,,0.00,0.000000,,2013-04-12 10:12:00,
2013-04-12 04:23:00,25.0,21.0,-100.00,WSW,256,5.0,13.0,84,0.00,,,0.00,0.000000,,2013-04-12 10:23:00,
2013-04-12 04:34:00,25.0,21.0,-100.00,WSW,256,5.0,13.0,84,0.00,,,0.00,0.000000,,2013-04-12 10:34:00,
2013-04-12 04:42:00,25.0,21.0,-100.00,WSW,256,5.0,13.0,84,0.00,,,0.00,0.000000,,2013-04-12 10:42:00,
2013-04-12 04:52:00,24.0,20.0,-100.00,West,265,6.0,10.0,86,0.00,,,0.00,0.000000,,2013-04-12 10:52:00,
2013-04-12 05:13:00,24.0,20.0,-100.00,West,265,6.0,10.0,86,0.00,,,0.00,0.000000,,2013-04-12 11:13:00,
2013-04-12 05:22:00,24.0,20.0,-100.00,West,265,6.0,10.0,86,0.00,,,0.00,0.000000,,2013-04-12 11:22:00,
2013-04-12 05:32:00,24.0,20.0,-100.00,West,265,6.0,10.0,86,0.00,,,0.00,0.000000,,2013-04-12 11:32:00,
2013-04-12 05:42:00,24.0,20.0,-100.00,West,265,6.0,10.0,86,0.00,,,0.00,0.000000,,2013-04-12 11:42:00,
2013-04-12 05:52:00,24.0,20.0,-100.00,West,260,7.0,11.0,83,0.00,,,0.00,0.000000,,2013-04-12 11:52:00,
2013-04-12 06:22:00,24.0,20.0,-100.00,West,260,7.0,11.0,83,0.00,,,0.00,0.000000,,2013-04-12 12:22:00,
2013-04-12 06:33:00,24.0,20.0,-100.00,West,260,7.0,11.0,83,0.00,,,0.00,0.000000,,2013-04-12 12:33:00,
2013-04-12 06:42:00,24.0,20.0,-100.00,West,260,7.0,11.0,83,0.00,,,0.00,0.000000,,2013-04-12 12:42:00,
2013-04-12 06:52:00,23.0,18.0,-100.00,West,264,8.0,14.0,80,0.00,,,0.00,5.000000,,2013-04-12 12:52:00,
2013-04-12 07:12:00,23.0,18.0,-100.00,West,264,8.0,14.0,80,0.00,,,0.00,5.000000,,2013-04-12 13:12:00,
2013-04-12 07:22:00,23.0,18.0,-100.00,West,264,8.0,14.0,80,0.00,,,0.00,5.000000,,2013-04-12 13:22:00,
2013-04-12 07:32:00,23.0,18.0,-100.00,West,264,8.0,14.0,80,0.00,,,0.00,5.000000,,2013-04-12 13:32:00,
2013-04-12 07:42:00,23.0,18.0,-100.00,West,264,8.0,14.0,80,0.00,,,0.00,5.000000,,2013-04-12 13:42:00,
2013-04-12 07:52:00,28.0,20.0,-100.00,West,259,10.0,14.0,72,0.00,,,0.00,125.000000,,2013-04-12 13:52:00,
2013-04-12 08:13:00,28.0,20.0,-100.00,West,259,10.0,14.0,72,0.00,,,0.00,125.000000,,2013-04-12 14:13:00,
2013-04-12 08:23:00,28.0,20.0,-100.00,West,259,10.0,14.0,72,0.00,,,0.00,125.000000,,2013-04-12 14:23:00,
2013-04-12 08:33:00,28.0,20.0,-100.00,West,259,10.0,14.0,72,0.00,,,0.00,125.000000,,2013-04-12 14:33:00,
2013-04-12 08:42:00,28.0,20.0,-100.00,West,259,10.0,14.0,72,0.00,,,0.00,125.000000,,2013-04-12 14:42:00,
2013-04-12 08:52:00,30.0,20.0,-100.00,West,270,16.0,22.0,67,0.01,,,-99.99,338.000000,,2013-04-12 14:52:00,
2013-04-12 09:22:00,30.0,20.0,-100.00,West,270,16.0,22.0,67,0.01,,,-99.99,338.000000,,2013-04-12 15:22:00,
2013-04-12 09:33:00,30.0,20.0,-100.00,West,270,16.0,22.0,67,0.01,,,-99.99,338.000000,,2013-04-12 15:33:00,
2013-04-12 09:43:00,30.0,20.0,-100.00,West,270,16.0,22.0,67,0.01,,,-99.99,338.000000,,2013-04-12 15:43:00,
2013-04-12 09:52:00,34.0,21.0,-100.00,West,272,18.0,32.0,58,0.00,,,-99.99,585.000000,,2013-04-12 15:52:00,
2013-04-12 10:23:00,34.0,21.0,-100.00,West,272,18.0,32.0,58,0.00,,,-99.99,585.000000,,2013-04-12 16:23:00,
2013-04-12 10:33:00,34.0,21.0,-100.00,West,272,18.0,32.0,58,0.00,,,-99.99,585.000000,,2013-04-12 16:33:00,
2013-04-12 10:42:00,34.0,21.0,-100.00,West,272,18.0,32.0,58,0.00,,,-99.99,585.000000,,2013-04-12 16:42:00,
2013-04-12 10:52:00,33.0,22.0,-100.00,West,280,22.0,37.0,63,0.00,,,0.01,677.000000,,2013-04-12 16:52:00,
2013-04-12 11:12:00,33.0,22.0,-100.00,West,280,22.0,37.0,63,0.00,,,0.01,677.000000,,2013-04-12 17:12:00,
2013-04-12 11:23:00,33.0,22.0,-100.00,West,280,22.0,37.0,63,0.00,,,0.01,677.000000,,2013-04-12 17:23:00,
2013-04-12 11:33:00,33.0,22.0,-100.00,West,280,22.0,37.0,63,0.00,,,0.01,677.000000,,2013-04-12 17:33:00,
2013-04-12 11:44:00,33.0,22.0,-100.00,West,280,22.0,37.0,63,0.00,,,0.01,677.000000,,2013-04-12 17:44:00,
2013-04-12 12:52:00,37.0,19.0,-100.00,West,278,18.0,33.0,48,0.00,,,0.01,1037.000000,,2013-04-12 18:52:00,
2013-04-12 13:26:00,37.0,19.0,-100.00,West,278,18.0,33.0,48,0.00,,,0.01,1037.000000,,2013-04-12 19:26:00,
2013-04-12 13:32:00,37.0,19.0,-100.00,West,278,18.0,33.0,48,0.00,,,0.01,1037.000000,,2013-04-12 19:32:00,
2013-04-12 13:43:00,37.0,19.0,-100.00,West,278,18.0,33.0,48,0.00,,,0.01,1037.000000,,2013-04-12 19:43:00,
2013-04-12 13:52:00,36.0,18.0,-100.00,WNW,283,21.0,34.0,48,0.00,,,0.01,1047.000000,,2013-04-12 19:52:00,
2013-04-12 14:12:00,36.0,18.0,-100.00,WNW,283,21.0,34.0,48,0.00,,,0.01,1047.000000,,2013-04-12 20:12:00,
2013-04-12 14:22:00,36.0,18.0,-100.00,WNW,283,21.0,34.0,48,0.00,,,0.01,1047.000000,,2013-04-12 20:22:00,
2013-04-12 14:32:00,36.0,18.0,-100.00,WNW,283,21.0,34.0,48,0.00,,,0.01,1047.000000,,2013-04-12 20:32:00,
2013-04-12 14:42:00,36.0,18.0,-100.00,WNW,283,21.0,34.0,48,0.00,,,0.01,1047.000000,,2013-04-12 20:42:00,
2013-04-12 14:52:00,39.0,17.0,-100.00,West,277,19.0,30.0,41,0.00,,,0.01,1065.000000,,2013-04-12 20:52:00,
2013-04-12 15:22:00,39.0,17.0,-100.00,West,277,19.0,30.0,41,0.00,,,0.01,1065.000000,,2013-04-12 21:22:00,
2013-04-12 15:33:00,39.0,17.0,-100.00,West,277,19.0,30.0,41,0.00,,,0.01,1065.000000,,2013-04-12 21:33:00,
2013-04-12 15:43:00,39.0,17.0,-100.00,West,277,19.0,30.0,41,0.00,,,0.01,1065.000000,,2013-04-12 21:43:00,
2013-04-12 15:52:00,38.0,15.0,-100.00,West,280,21.0,31.0,38,0.00,,,0.01,965.000000,,2013-04-12 21:52:00,
2013-04-12 16:22:00,38.0,15.0,-100.00,West,280,21.0,31.0,38,0.00,,,0.01,965.000000,,2013-04-12 22:22:00,
2013-04-12 16:32:00,38.0,15.0,-100.00,West,280,21.0,31.0,38,0.00,,,0.01,965.000000,,2013-04-12 22:32:00,
2013-04-12 16:42:00,38.0,15.0,-100.00,West,280,21.0,31.0,38,0.00,,,0.01,965.000000,,2013-04-12 22:42:00,
2013-04-12 16:52:00,38.0,15.0,-100.00,West,278,17.0,32.0,38,0.00,,,0.01,779.000000,,2013-04-12 22:52:00,
2013-04-12 17:12:00,38.0,15.0,-100.00,West,278,17.0,32.0,38,0.00,,,0.01,779.000000,,2013-04-12 23:12:00,
2013-04-12 17:22:00,38.0,15.0,-100.00,West,278,17.0,32.0,38,0.00,,,0.01,779.000000,,2013-04-12 23:22:00,
2013-04-12 17:32:00,38.0,15.0,-100.00,West,278,17.0,32.0,38,0.00,,,0.01,779.000000,,2013-04-12 23:32:00,
2013-04-12 17:42:00,38.0,15.0,-100.00,West,278,17.0,32.0,38,0.00,,,0.01,779.000000,,2013-04-12 23:42:00,
2013-04-12 17:52:00,37.0,14.0,-100.00,West,277,17.0,28.0,39,0.00,,,0.01,533.000000,,2013-04-12 23:52:00,
2013-04-12 18:12:00,37.0,14.0,-100.00,West,277,17.0,28.0,39,0.00,,,0.01,533.000000,,2013-04-13 00:12:00,
2013-04-12 18:22:00,37.0,14.0,-100.00,West,277,17.0,28.0,39,0.00,,,0.01,533.000000,,2013-04-13 00:22:00,
2013-04-12 18:32:00,37.0,14.0,-100.00,West,277,17.0,28.0,39,0.00,,,0.01,533.000000,,2013-04-13 00:32:00,
2013-04-12 18:42:00,37.0,14.0,-100.00,West,277,17.0,28.0,39,0.00,,,0.01,533.000000,,2013-04-13 00:42:00,
2013-04-12 18:52:00,38.0,11.0,-100.00,WSW,258,13.0,25.0,33,0.00,,,0.01,204.000000,,2013-04-13 00:52:00,
2013-04-12 19:13:00,38.0,11.0,-100.00,WSW,258,13.0,25.0,33,0.00,,,0.01,204.000000,,2013-04-13 01:13:00,
2013-04-12 19:22:00,38.0,11.0,-100.00,WSW,258,13.0,25.0,33,0.00,,,0.01,204.000000,,2013-04-13 01:22:00,
2013-04-12 19:32:00,38.0,11.0,-100.00,WSW,258,13.0,25.0,33,0.00,,,0.01,204.000000,,2013-04-13 01:32:00,
2013-04-12 19:42:00,38.0,11.0,-100.00,WSW,258,13.0,25.0,33,0.00,,,0.01,204.000000,,2013-04-13 01:42:00,
2013-04-12 19:52:00,33.0,9.0,-100.00,West,264,9.0,23.0,36,0.00,,,0.01,68.000000,,2013-04-13 01:52:00,
2013-04-12 20:22:00,33.0,9.0,-100.00,West,264,9.0,23.0,36,0.00,,,0.01,68.000000,,2013-04-13 02:22:00,
2013-04-12 20:32:00,33.0,9.0,-100.00,West,264,9.0,23.0,36,0.00,,,0.01,68.000000,,2013-04-13 02:32:00,
2013-04-12 20:42:00,33.0,9.0,-100.00,West,264,9.0,23.0,36,0.00,,,0.01,68.000000,,2013-04-13 02:42:00,
2013-04-12 20:52:00,30.0,10.0,-100.00,WSW,243,5.0,14.0,43,0.00,,,0.01,0.000000,,2013-04-13 02:52:00,
2013-04-12 21:23:00,30.0,10.0,-100.00,WSW,243,5.0,14.0,43,0.00,,,0.01,0.000000,,2013-04-13 03:23:00,
2013-04-12 21:33:00,30.0,10.0,-100.00,WSW,243,5.0,14.0,43,0.00,,,0.01,0.000000,,2013-04-13 03:33:00,
2013-04-12 21:42:00,30.0,10.0,-100.00,WSW,243,5.0,14.0,43,0.00,,,0.01,0.000000,,2013-04-13 03:42:00,
2013-04-12 21:52:00,28.0,10.0,-100.00,WSW,250,5.0,8.0,46,0.00,,,0.01,0.000000,,2013-04-13 03:52:00,
2013-04-12 22:12:00,28.0,10.0,-100.00,WSW,250,5.0,8.0,46,0.00,,,0.01,0.000000,,2013-04-13 04:12:00,
2013-04-12 22:23:00,28.0,10.0,-100.00,WSW,250,5.0,8.0,46,0.00,,,0.01,0.000000,,2013-04-13 04:23:00,
2013-04-12 22:33:00,28.0,10.0,-100.00,WSW,250,5.0,8.0,46,0.00,,,0.01,0.000000,,2013-04-13 04:33:00,
2013-04-12 22:42:00,28.0,10.0,-100.00,WSW,250,5.0,8.0,46,0.00,,,0.01,0.000000,,2013-04-13 04:42:00,
2013-04-12 22:52:00,28.0,10.0,-100.00,WSW,239,6.0,10.0,47,0.00,,,0.01,0.000000,,2013-04-13 04:52:00,
2013-04-12 23:12:00,28.0,10.0,-100.00,WSW,239,6.0,10.0,47,0.00,,,0.01,0.000000,,2013-04-13 05:12:00,
2013-04-12 23:22:00,28.0,10.0,-100.00,WSW,239,6.0,10.0,47,0.00,,,0.01,0.000000,,2013-04-13 05:22:00,
2013-04-12 23:32:00,28.0,10.0,-100.00,WSW,239,6.0,10.0,47,0.00,,,0.01,0.000000,,2013-04-13 05:32:00,
2013-04-12 23:42:00,28.0,10.0,-100.00,WSW,239,6.0,10.0,47,0.00,,,0.01,0.000000,,2013-04-13 05:42:00,
2013-04-12 23:52:00,28.0,12.0,-100.00,SSW,210,6.0,12.0,50,0.00,,,0.01,0.000000,,2013-04-13 05:52:00,